Time,TemperatureF,DewpointF,PressureIn,WindDirection,WindDirectionDegrees,WindSpeedMPH,WindSpeedGustMPH,Humidity,HourlyPrecipIn,Conditions,Clouds,dailyrainin,SoftwareType,DateUTC
2013-02-12 00:02:00,-1.5,-15.2,29.81,SE,135,0.0,0.0,51,0.00,,,0.00,meteohub,2013-02-12 07:02:00,
2013-02-12 00:07:00,-1.8,-15.5,29.81,SE,135,0.0,0.0,51,0.00,,,0.00,meteohub,2013-02-12 07:07:00,
2013-02-12 00:12:00,-2.2,-16.2,29.81,SE,135,0.0,0.0,50,0.00,,,0.00,meteohub,2013-02-12 07:12:00,
2013-02-12 00:17:00,-2.6,-16.2,29.81,SE,135,0.0,0.0,51,0.00,,,0.00,meteohub,2013-02-12 07:17:00,
2013-02-12 00:22:00,-3.1,-16.8,29.81,SE,135,0.0,0.0,51,0.00,,,0.00,meteohub,2013-02-12 07:22:00,
2013-02-12 00:27:00,-3.3,-17.0,29.81,SE,135,0.0,0.0,51,0.00,,,0.00,meteohub,2013-02-12 07:27:00,
2013-02-12 00:32:00,-3.6,-17.7,29.82,SE,135,0.0,0.0,50,0.00,,,0.00,meteohub,2013-02-12 07:32:00,
2013-02-12 00:37:00,-4.0,-18.0,29.81,SE,135,0.0,0.0,50,0.00,,,0.00,meteohub,2013-02-12 07:37:00,
2013-02-12 00:42:00,-4.2,-17.7,29.81,SE,135,0.0,0.0,51,0.00,,,0.00,meteohub,2013-02-12 07:42:00,
2013-02-12 00:47:00,-4.5,-18.0,29.81,SE,135,0.0,0.0,51,0.00,,,0.00,meteohub,2013-02-12 07:47:00,
2013-02-12 00:52:00,-4.9,-18.4,29.81,SE,135,0.0,0.0,51,0.00,,,0.00,meteohub,2013-02-12 07:52:00,
2013-02-12 00:57:00,-5.1,-18.6,29.81,South,180,0.0,0.0,51,0.00,,,0.00,meteohub,2013-02-12 07:57:00,
2013-02-12 01:02:00,-5.4,-18.9,29.81,SE,135,0.0,0.0,51,0.00,,,0.00,meteohub,2013-02-12 08:02:00,
2013-02-12 01:07:00,-5.4,-18.9,29.81,SE,135,0.0,0.0,51,0.00,,,0.00,meteohub,2013-02-12 08:07:00,
2013-02-12 01:12:00,-5.8,-19.7,29.81,SW,225,0.0,0.0,50,0.00,,,0.00,meteohub,2013-02-12 08:12:00,
2013-02-12 01:17:00,-6.2,-19.7,29.81,SE,135,0.0,0.0,51,0.00,,,0.00,meteohub,2013-02-12 08:17:00,
2013-02-12 01:22:00,-6.2,-19.7,29.81,SE,135,0.0,0.0,51,0.00,,,0.00,meteohub,2013-02-12 08:22:00,
2013-02-12 01:27:00,-6.3,-19.3,29.81,SE,135,0.0,0.0,52,0.00,,,0.00,meteohub,2013-02-12 08:27:00,
2013-02-12 01:32:00,-6.3,-19.3,29.81,SE,135,0.0,0.0,52,0.00,,,0.00,meteohub,2013-02-12 08:32:00,
2013-02-12 01:37:00,-6.5,-19.5,29.81,SE,135,0.0,0.0,52,0.00,,,0.00,meteohub,2013-02-12 08:37:00,
2013-02-12 01:42:00,-6.5,-19.5,29.81,SE,135,0.0,0.0,52,0.00,,,0.00,meteohub,2013-02-12 08:42:00,
2013-02-12 01:47:00,-6.7,-19.7,29.81,SE,135,0.0,0.0,52,0.00,,,0.00,meteohub,2013-02-12 08:47:00,
2013-02-12 01:52:00,-6.5,-19.5,29.81,SE,135,0.0,0.0,52,0.00,,,0.00,meteohub,2013-02-12 08:52:00,
2013-02-12 01:57:00,-6.7,-19.7,29.81,SE,135,0.0,0.0,52,0.00,,,0.00,meteohub,2013-02-12 08:57:00,
2013-02-12 02:02:00,-6.7,-19.7,29.82,SE,135,0.0,0.0,52,0.00,,,0.00,meteohub,2013-02-12 09:02:00,
2013-02-12 02:07:00,-6.7,-19.7,29.82,SE,135,0.0,0.0,52,0.00,,,0.00,meteohub,2013-02-12 09:07:00,
2013-02-12 02:12:00,-6.7,-19.7,29.81,SE,135,0.0,0.0,52,0.00,,,0.00,meteohub,2013-02-12 09:12:00,
2013-02-12 02:17:00,-6.7,-19.7,29.81,SE,135,0.0,0.0,52,0.00,,,0.00,meteohub,2013-02-12 09:17:00,
2013-02-12 02:22:00,-6.7,-19.7,29.81,SE,135,0.0,0.0,52,0.00,,,0.00,meteohub,2013-02-12 09:22:00,
2013-02-12 02:27:00,-6.7,-19.7,29.81,SE,135,0.0,0.0,52,0.00,,,0.00,meteohub,2013-02-12 09:27:00,
2013-02-12 02:32:00,-6.9,-19.8,29.81,SE,135,0.0,0.0,52,0.00,,,0.00,meteohub,2013-02-12 09:32:00,
2013-02-12 02:37:00,-6.9,-19.8,29.82,SE,135,0.0,0.0,52,0.00,,,0.00,meteohub,2013-02-12 09:37:00,
2013-02-12 02:42:00,-7.1,-20.0,29.81,SE,135,0.0,0.0,52,0.00,,,0.00,meteohub,2013-02-12 09:42:00,
2013-02-12 02:47:00,-7.1,-20.0,29.81,SE,135,0.0,0.0,52,0.00,,,0.00,meteohub,2013-02-12 09:47:00,
2013-02-12 02:52:00,-7.1,-20.0,29.81,SE,135,0.0,0.0,52,0.00,,,0.00,meteohub,2013-02-12 09:52:00,
2013-02-12 02:57:00,-7.2,-20.2,29.81,SE,135,0.0,0.0,52,0.00,,,0.00,meteohub,2013-02-12 09:57:00,
2013-02-12 03:02:00,-7.2,-20.2,29.81,SE,135,0.0,0.0,52,0.00,,,0.00,meteohub,2013-02-12 10:02:00,
2013-02-12 03:07:00,-7.2,-20.2,29.81,SE,135,0.0,0.0,52,0.00,,,0.00,meteohub,2013-02-12 10:07:00,
2013-02-12 03:12:00,-7.4,-20.4,29.81,SE,135,0.0,0.0,52,0.00,,,0.00,meteohub,2013-02-12 10:12:00,
2013-02-12 03:17:00,-7.6,-20.6,29.81,SE,135,0.0,0.0,52,0.00,,,0.00,meteohub,2013-02-12 10:17:00,
2013-02-12 03:22:00,-7.8,-22.2,29.81,SE,135,0.0,0.0,48,0.00,,,0.00,meteohub,2013-02-12 10:22:00,
2013-02-12 03:27:00,-7.8,-22.2,29.81,SE,135,0.0,0.0,48,0.00,,,0.00,meteohub,2013-02-12 10:27:00,
2013-02-12 03:32:00,-8.0,-22.4,29.81,SE,135,0.0,0.0,48,0.00,,,0.00,meteohub,2013-02-12 10:32:00,
2013-02-12 03:37:00,-8.0,-22.4,29.81,SE,135,0.0,0.0,48,0.00,,,0.00,meteohub,2013-02-12 10:37:00,
2013-02-12 03:42:00,-8.1,-22.5,29.81,SE,135,0.0,0.0,48,0.00,,,0.00,meteohub,2013-02-12 10:42:00,
2013-02-12 03:47:00,-8.3,-22.7,29.81,SE,135,0.0,0.0,48,0.00,,,0.00,meteohub,2013-02-12 10:47:00,
2013-02-12 03:52:00,-8.3,-22.7,29.81,SE,135,0.0,0.0,48,0.00,,,0.00,meteohub,2013-02-12 10:52:00,
2013-02-12 03:57:00,-8.3,-22.7,29.81,SE,135,0.0,0.0,48,0.00,,,0.00,meteohub,2013-02-12 10:57:00,
2013-02-12 04:02:00,-8.3,-22.7,29.81,SE,135,0.0,0.0,48,0.00,,,0.00,meteohub,2013-02-12 11:02:00,
2013-02-12 04:07:00,-8.5,-22.9,29.81,SE,135,0.0,0.0,48,0.00,,,0.00,meteohub,2013-02-12 11:07:00,
2013-02-12 04:12:00,-8.5,-23.3,29.81,SE,135,0.0,0.0,47,0.00,,,0.00,meteohub,2013-02-12 11:12:00,
2013-02-12 04:17:00,-8.9,-23.6,29.81,SE,135,0.0,0.0,47,0.00,,,0.00,meteohub,2013-02-12 11:17:00,
2013-02-12 04:22:00,-8.9,-23.6,29.81,SE,135,0.0,0.0,47,0.00,,,0.00,meteohub,2013-02-12 11:22:00,
2013-02-12 04:27:00,-9.0,-23.8,29.82,SE,135,0.0,0.0,47,0.00,,,0.00,meteohub,2013-02-12 11:27:00,
2013-02-12 04:32:00,-9.0,-23.8,29.82,SE,135,0.0,0.0,47,0.00,,,0.00,meteohub,2013-02-12 11:32:00,
2013-02-12 04:37:00,-9.2,-24.0,29.82,SE,135,0.0,0.0,47,0.00,,,0.00,meteohub,2013-02-12 11:37:00,
2013-02-12 04:42:00,-9.2,-24.3,29.82,SE,135,0.0,0.0,46,0.00,,,0.00,meteohub,2013-02-12 11:42:00,
2013-02-12 04:47:00,-9.4,-24.5,29.82,SE,135,0.0,0.0,46,0.00,,,0.00,meteohub,2013-02-12 11:47:00,
2013-02-12 04:52:00,-9.6,-24.3,29.82,SE,135,0.0,0.0,47,0.00,,,0.00,meteohub,2013-02-12 11:52:00,
2013-02-12 04:57:00,-9.6,-24.3,29.82,SE,135,0.0,0.0,47,0.00,,,0.00,meteohub,2013-02-12 11:57:00,
2013-02-12 05:02:00,-9.6,-24.3,29.83,SE,135,0.0,0.0,47,0.00,,,0.00,meteohub,2013-02-12 12:02:00,
2013-02-12 05:07:00,-9.6,-24.3,29.83,SE,135,0.0,0.0,47,0.00,,,0.00,meteohub,2013-02-12 12:07:00,
2013-02-12 05:12:00,-9.6,-24.3,29.83,SE,135,0.0,0.0,47,0.00,,,0.00,meteohub,2013-02-12 12:12:00,
2013-02-12 05:17:00,-9.6,-24.3,29.83,SE,135,0.0,0.0,47,0.00,,,0.00,meteohub,2013-02-12 12:17:00,
2013-02-12 05:22:00,-9.8,-24.5,29.83,SE,135,0.0,0.0,47,0.00,,,0.00,meteohub,2013-02-12 12:22:00,
2013-02-12 05:27:00,-9.8,-24.5,29.83,South,180,0.0,0.0,47,0.00,,,0.00,meteohub,2013-02-12 12:27:00,
2013-02-12 05:32:00,-9.9,-24.7,29.83,SW,225,0.0,0.0,47,0.00,,,0.00,meteohub,2013-02-12 12:32:00,
2013-02-12 05:37:00,-9.9,-24.7,29.83,West,270,0.0,0.0,47,0.00,,,0.00,meteohub,2013-02-12 12:37:00,
2013-02-12 05:42:00,-10.1,-24.9,29.83,South,180,0.0,0.0,47,0.00,,,0.00,meteohub,2013-02-12 12:42:00,
2013-02-12 05:47:00,-9.9,-24.7,29.83,South,180,0.0,0.0,47,0.00,,,0.00,meteohub,2013-02-12 12:47:00,
2013-02-12 05:52:00,-9.9,-24.7,29.83,SW,225,0.0,0.0,47,0.00,,,0.00,meteohub,2013-02-12 12:52:00,
2013-02-12 05:57:00,-9.9,-24.7,29.83,West,270,0.0,0.0,47,0.00,,,0.00,meteohub,2013-02-12 12:57:00,
2013-02-12 06:02:00,-9.8,-24.5,29.83,SE,135,0.0,0.0,47,0.00,,,0.00,meteohub,2013-02-12 13:02:00,
2013-02-12 06:07:00,-9.6,-24.0,29.83,SE,135,0.0,0.0,48,0.00,,,0.00,meteohub,2013-02-12 13:07:00,
2013-02-12 06:12:00,-9.4,-24.2,29.83,SE,135,0.0,0.0,47,0.00,,,0.00,meteohub,2013-02-12 13:12:00,
2013-02-12 06:17:00,-9.2,-24.0,29.83,SE,135,0.0,0.0,47,0.00,,,0.00,meteohub,2013-02-12 13:17:00,
2013-02-12 06:22:00,-9.0,-23.4,29.83,SE,135,0.0,0.0,48,0.00,,,0.00,meteohub,2013-02-12 13:22:00,
2013-02-12 06:27:00,-9.0,-23.4,29.83,SE,135,0.0,0.0,48,0.00,,,0.00,meteohub,2013-02-12 13:27:00,
2013-02-12 06:32:00,-9.0,-23.4,29.83,SE,135,0.0,0.0,48,0.00,,,0.00,meteohub,2013-02-12 13:32:00,
2013-02-12 06:37:00,-8.9,-23.3,29.83,SE,135,0.0,0.0,48,0.00,,,0.00,meteohub,2013-02-12 13:37:00,
2013-02-12 06:42:00,-8.9,-23.3,29.83,SE,135,0.0,0.0,48,0.00,,,0.00,meteohub,2013-02-12 13:42:00,
2013-02-12 06:47:00,-8.9,-23.3,29.83,SE,135,0.0,0.0,48,0.00,,,0.00,meteohub,2013-02-12 13:47:00,
2013-02-12 06:52:00,-8.9,-23.3,29.83,SE,135,0.0,0.0,48,0.00,,,0.00,meteohub,2013-02-12 13:52:00,
2013-02-12 06:57:00,-9.0,-23.4,29.84,SE,135,0.0,0.0,48,0.00,,,0.00,meteohub,2013-02-12 13:57:00,
2013-02-12 07:02:00,-9.0,-23.4,29.84,SE,135,0.0,0.0,48,0.00,,,0.00,meteohub,2013-02-12 14:02:00,
2013-02-12 07:07:00,-9.2,-23.6,29.83,SE,135,0.0,0.0,48,0.00,,,0.00,meteohub,2013-02-12 14:07:00,
2013-02-12 07:12:00,-9.4,-23.8,29.84,SE,135,0.0,0.0,48,0.00,,,0.00,meteohub,2013-02-12 14:12:00,
2013-02-12 07:18:00,-9.4,-23.8,29.84,SE,135,0.0,0.0,48,0.00,,,0.00,meteohub,2013-02-12 14:18:00,
2013-02-12 07:23:00,-9.6,-23.6,29.84,SE,135,0.0,0.0,49,0.00,,,0.00,meteohub,2013-02-12 14:23:00,
2013-02-12 07:28:00,-9.6,-23.6,29.84,SE,135,0.0,0.0,49,0.00,,,0.00,meteohub,2013-02-12 14:28:00,
2013-02-12 07:33:00,-9.4,-23.8,29.83,SE,135,0.0,0.0,48,0.00,,,0.00,meteohub,2013-02-12 14:33:00,
2013-02-12 07:38:00,-9.2,-23.6,29.84,SE,135,0.0,0.0,48,0.00,,,0.00,meteohub,2013-02-12 14:38:00,
2013-02-12 07:43:00,-9.2,-23.6,29.83,SE,135,0.0,0.0,48,0.00,,,0.00,meteohub,2013-02-12 14:43:00,
2013-02-12 07:48:00,-9.0,-23.4,29.84,SE,135,0.0,0.0,48,0.00,,,0.00,meteohub,2013-02-12 14:48:00,
2013-02-12 07:53:00,-8.9,-23.3,29.83,SE,135,0.0,0.0,48,0.00,,,0.00,meteohub,2013-02-12 14:53:00,
2013-02-12 07:58:00,-8.9,-23.3,29.83,SE,135,0.0,0.0,48,0.00,,,0.00,meteohub,2013-02-12 14:58:00,
2013-02-12 08:03:00,-8.7,-23.1,29.84,SE,135,0.0,0.0,48,0.00,,,0.00,meteohub,2013-02-12 15:03:00,
2013-02-12 08:08:00,-8.7,-23.1,29.84,SE,135,0.0,0.0,48,0.00,,,0.00,meteohub,2013-02-12 15:08:00,
2013-02-12 08:13:00,-8.7,-23.1,29.84,SE,135,0.0,0.0,48,0.00,,,0.00,meteohub,2013-02-12 15:13:00,
2013-02-12 08:18:00,-8.7,-23.1,29.84,SE,135,0.0,0.0,48,0.00,,,0.00,meteohub,2013-02-12 15:18:00,
2013-02-12 08:23:00,-8.7,-23.1,29.84,SE,135,0.0,0.0,48,0.00,,,0.00,meteohub,2013-02-12 15:23:00,
2013-02-12 08:28:00,-8.5,-22.9,29.84,SE,135,0.0,0.0,48,0.00,,,0.00,meteohub,2013-02-12 15:28:00,
2013-02-12 08:33:00,-8.5,-22.9,29.84,SE,135,0.0,0.0,48,0.00,,,0.00,meteohub,2013-02-12 15:33:00,
2013-02-12 08:39:00,-8.5,-22.9,29.84,SE,135,0.0,0.0,48,0.00,,,0.00,meteohub,2013-02-12 15:39:00,
2013-02-12 08:44:00,-8.3,-22.7,29.84,SE,135,0.0,0.0,48,0.00,,,0.00,meteohub,2013-02-12 15:44:00,
2013-02-12 08:49:00,-8.3,-22.7,29.84,SE,135,0.0,0.0,48,0.00,,,0.00,meteohub,2013-02-12 15:49:00,
2013-02-12 08:54:00,-8.1,-22.5,29.85,SE,135,0.0,0.0,48,0.00,,,0.00,meteohub,2013-02-12 15:54:00,
2013-02-12 08:59:00,-7.8,-22.2,29.85,SE,135,0.0,0.0,48,0.00,,,0.00,meteohub,2013-02-12 15:59:00,
2013-02-12 09:04:00,-7.8,-22.2,29.85,SE,135,0.0,0.0,48,0.00,,,0.00,meteohub,2013-02-12 16:04:00,
2013-02-12 09:09:00,-6.7,-19.3,29.84,SE,135,0.0,0.0,53,0.00,,,0.00,meteohub,2013-02-12 16:09:00,
2013-02-12 09:14:00,-5.4,-18.2,29.84,SE,135,0.0,0.0,53,0.00,,,0.00,meteohub,2013-02-12 16:14:00,
2013-02-12 09:19:00,-2.6,-15.2,29.84,South,180,0.0,0.0,54,0.00,,,0.00,meteohub,2013-02-12 16:19:00,
2013-02-12 09:24:00,-1.7,-14.6,29.84,NW,315,0.0,0.0,53,0.00,,,0.00,meteohub,2013-02-12 16:24:00,
2013-02-12 09:29:00,-1.5,-14.4,29.84,West,270,0.0,0.0,53,0.00,,,0.00,meteohub,2013-02-12 16:29:00,
2013-02-12 09:34:00,-1.3,-14.3,29.84,West,270,5.0,0.0,53,0.00,,,0.00,meteohub,2013-02-12 16:34:00,
2013-02-12 09:39:00,-0.6,-13.2,29.84,West,270,3.0,5.0,54,0.00,,,0.00,meteohub,2013-02-12 16:39:00,
2013-02-12 09:44:00,0.1,-13.0,29.84,NW,315,2.0,8.0,53,0.00,,,0.00,meteohub,2013-02-12 16:44:00,
2013-02-12 09:49:00,0.9,-12.3,29.84,West,270,4.0,8.0,53,0.00,,,0.00,meteohub,2013-02-12 16:49:00,
2013-02-12 09:54:00,1.6,-9.8,29.84,SE,135,6.0,8.0,58,0.00,,,0.00,meteohub,2013-02-12 16:54:00,
2013-02-12 09:59:00,2.1,-9.2,29.84,WNW,293,3.0,8.0,58,0.00,,,0.00,meteohub,2013-02-12 16:59:00,
2013-02-12 10:05:00,2.5,-9.2,29.85,WSW,248,4.0,8.0,57,0.00,,,0.00,meteohub,2013-02-12 17:05:00,
2013-02-12 10:10:00,3.0,-8.7,29.85,SE,135,2.0,8.0,57,0.00,,,0.00,meteohub,2013-02-12 17:10:00,
2013-02-12 10:15:00,4.3,-7.6,29.85,South,180,4.0,8.0,57,0.00,,,0.00,meteohub,2013-02-12 17:15:00,
2013-02-12 10:20:00,4.6,-7.6,29.85,NW,315,4.0,7.0,56,0.00,,,0.00,meteohub,2013-02-12 17:20:00,
2013-02-12 10:25:00,5.0,-8.0,29.85,WNW,293,4.0,7.0,54,0.00,,,0.00,meteohub,2013-02-12 17:25:00,
2013-02-12 10:30:00,5.2,-7.8,29.85,ESE,113,4.0,7.0,54,0.00,,,0.00,meteohub,2013-02-12 17:30:00,
2013-02-12 10:35:00,5.4,-7.6,29.85,West,270,6.0,7.0,54,0.00,,,0.00,meteohub,2013-02-12 17:35:00,
2013-02-12 10:40:00,5.5,-8.0,29.85,West,270,2.0,6.0,53,0.00,,,0.00,meteohub,2013-02-12 17:40:00,
2013-02-12 10:45:00,5.9,-7.6,29.85,NW,315,5.0,8.0,53,0.00,,,0.00,meteohub,2013-02-12 17:45:00,
2013-02-12 10:50:00,6.3,-7.2,29.85,NW,315,4.0,8.0,53,0.00,,,0.00,meteohub,2013-02-12 17:50:00,
2013-02-12 10:55:00,6.8,-7.1,29.85,WNW,293,6.0,7.0,52,0.00,,,0.00,meteohub,2013-02-12 17:55:00,
2013-02-12 11:00:00,7.0,-6.9,29.85,NW,315,5.0,10.0,52,0.00,,,0.00,meteohub,2013-02-12 18:00:00,
2013-02-12 11:05:00,7.0,-6.9,29.85,NW,315,5.0,10.0,52,0.00,,,0.00,meteohub,2013-02-12 18:05:00,
2013-02-12 11:10:00,8.6,-6.2,29.85,NNW,338,3.0,10.0,50,0.00,,,0.00,meteohub,2013-02-12 18:10:00,
2013-02-12 11:15:00,10.9,-2.4,29.85,SW,225,5.0,9.0,54,0.00,,,0.00,meteohub,2013-02-12 18:15:00,
2013-02-12 11:20:00,11.1,-2.7,29.85,West,270,4.0,9.0,53,0.00,,,0.00,meteohub,2013-02-12 18:20:00,
2013-02-12 11:26:00,10.9,-3.3,29.85,West,270,4.0,9.0,52,0.00,,,0.00,meteohub,2013-02-12 18:26:00,
2013-02-12 11:31:00,11.3,-2.9,29.85,NW,315,8.0,9.0,52,0.00,,,0.00,meteohub,2013-02-12 18:31:00,
2013-02-12 11:36:00,11.7,-2.9,29.85,NW,315,4.0,8.0,51,0.00,,,0.00,meteohub,2013-02-12 18:36:00,
2013-02-12 11:41:00,12.0,-3.1,29.85,NW,315,8.0,9.0,50,0.00,,,0.00,meteohub,2013-02-12 18:41:00,
2013-02-12 11:46:00,14.2,-1.8,29.84,West,270,7.0,9.0,48,0.00,,,0.00,meteohub,2013-02-12 18:46:00,
2013-02-12 11:51:00,18.7,1.4,29.85,SW,225,6.0,9.0,46,0.00,,,0.00,meteohub,2013-02-12 18:51:00,
2013-02-12 11:56:00,22.5,3.9,29.85,West,270,3.0,8.0,44,0.00,,,0.00,meteohub,2013-02-12 18:56:00,
2013-02-12 12:01:00,24.3,3.9,29.84,NW,315,8.0,8.0,41,0.00,,,0.00,meteohub,2013-02-12 19:01:00,
2013-02-12 12:06:00,24.3,2.3,29.84,East,90,7.0,8.0,38,0.00,,,0.00,meteohub,2013-02-12 19:06:00,
2013-02-12 12:11:00,23.2,-0.4,29.85,North,0,4.0,8.0,35,0.00,,,0.00,meteohub,2013-02-12 19:11:00,
2013-02-12 12:16:00,23.4,0.3,29.84,ENE,68,8.0,8.0,36,0.00,,,0.00,meteohub,2013-02-12 19:16:00,
2013-02-12 12:21:00,23.2,-0.4,29.84,NW,315,9.0,11.0,35,0.00,,,0.00,meteohub,2013-02-12 19:21:00,
2013-02-12 12:26:00,22.1,-2.0,29.84,NW,315,6.0,11.0,34,0.00,,,0.00,meteohub,2013-02-12 19:26:00,
2013-02-12 12:31:00,21.0,-2.4,29.84,NW,315,7.0,11.0,35,0.00,,,0.00,meteohub,2013-02-12 19:31:00,
2013-02-12 12:36:00,20.3,-2.9,29.83,NW,315,2.0,10.0,35,0.00,,,0.00,meteohub,2013-02-12 19:36:00,
2013-02-12 12:41:00,20.8,-1.3,29.83,NW,315,2.0,8.0,37,0.00,,,0.00,meteohub,2013-02-12 19:41:00,
2013-02-12 12:47:00,21.9,-0.4,29.83,NE,45,7.0,9.0,37,0.00,,,0.00,meteohub,2013-02-12 19:47:00,
2013-02-12 12:52:00,23.0,0.7,29.83,NW,315,13.0,13.0,37,0.00,,,0.00,meteohub,2013-02-12 19:52:00,
2013-02-12 12:57:00,23.4,0.3,29.83,NW,315,9.0,13.0,36,0.00,,,0.00,meteohub,2013-02-12 19:57:00,
2013-02-12 13:02:00,23.2,-1.1,29.83,NE,45,2.0,13.0,34,0.00,,,0.00,meteohub,2013-02-12 20:02:00,
2013-02-12 13:07:00,23.2,-1.1,29.83,NE,45,2.0,13.0,34,0.00,,,0.00,meteohub,2013-02-12 20:07:00,
2013-02-12 13:12:00,25.0,0.5,29.83,NW,315,4.0,11.0,34,0.00,,,0.00,meteohub,2013-02-12 20:12:00,
2013-02-12 13:17:00,24.4,-0.6,29.83,West,270,8.0,11.0,33,0.00,,,0.00,meteohub,2013-02-12 20:17:00,
2013-02-12 13:22:00,24.3,-0.8,29.83,SW,225,6.0,11.0,33,0.00,,,0.00,meteohub,2013-02-12 20:22:00,
2013-02-12 13:27:00,23.5,-2.0,29.83,North,0,2.0,12.0,32,0.00,,,0.00,meteohub,2013-02-12 20:27:00,
2013-02-12 13:32:00,23.2,-2.4,29.83,NW,315,9.0,12.0,32,0.00,,,0.00,meteohub,2013-02-12 20:32:00,
2013-02-12 13:37:00,22.8,-1.3,29.83,SW,225,6.0,12.0,34,0.00,,,0.00,meteohub,2013-02-12 20:37:00,
2013-02-12 13:42:00,23.4,-0.9,29.83,NW,315,5.0,10.0,34,0.00,,,0.00,meteohub,2013-02-12 20:42:00,
2013-02-12 13:47:00,23.2,-1.1,29.83,NW,315,10.0,11.0,34,0.00,,,0.00,meteohub,2013-02-12 20:47:00,
2013-02-12 13:52:00,22.8,-1.3,29.83,West,270,7.0,11.0,34,0.00,,,0.00,meteohub,2013-02-12 20:52:00,
2013-02-12 13:57:00,22.8,-0.8,29.83,NW,315,8.0,11.0,35,0.00,,,0.00,meteohub,2013-02-12 20:57:00,
2013-02-12 14:02:00,23.2,-0.4,29.82,SE,135,3.0,10.0,35,0.00,,,0.00,meteohub,2013-02-12 21:02:00,
2013-02-12 14:07:00,23.0,-1.1,29.83,NW,315,2.0,11.0,34,0.00,,,0.00,meteohub,2013-02-12 21:07:00,
2013-02-12 14:12:00,22.8,-0.8,29.83,West,270,7.0,12.0,35,0.00,,,0.00,meteohub,2013-02-12 21:12:00,
2013-02-12 14:17:00,22.3,-1.8,29.83,West,270,9.0,12.0,34,0.00,,,0.00,meteohub,2013-02-12 21:17:00,
2013-02-12 14:22:00,21.7,-1.7,29.83,WNW,293,6.0,12.0,35,0.00,,,0.00,meteohub,2013-02-12 21:22:00,
2013-02-12 14:27:00,21.7,-1.1,29.82,NW,315,10.0,12.0,36,0.00,,,0.00,meteohub,2013-02-12 21:27:00,
2013-02-12 14:32:00,21.4,-1.5,29.83,NW,315,5.0,10.0,36,0.00,,,0.00,meteohub,2013-02-12 21:32:00,
2013-02-12 14:37:00,21.0,-1.1,29.82,West,270,13.0,13.0,37,0.00,,,0.00,meteohub,2013-02-12 21:37:00,
2013-02-12 14:42:00,20.7,-1.5,29.83,NW,315,7.0,13.0,37,0.00,,,0.00,meteohub,2013-02-12 21:42:00,
2013-02-12 14:47:00,20.1,-2.0,29.83,NW,315,11.0,13.0,37,0.00,,,0.00,meteohub,2013-02-12 21:47:00,
2013-02-12 14:52:00,19.8,-2.4,29.83,NW,315,8.0,13.0,37,0.00,,,0.00,meteohub,2013-02-12 21:52:00,
2013-02-12 14:57:00,19.6,-1.8,29.84,NW,315,10.0,11.0,38,0.00,,,0.00,meteohub,2013-02-12 21:57:00,
2013-02-12 15:02:00,19.2,-4.5,29.84,WNW,293,9.0,11.0,34,0.00,,,0.00,meteohub,2013-02-12 22:02:00,
2013-02-12 15:07:00,19.2,-4.5,29.84,WNW,293,9.0,11.0,34,0.00,,,0.00,meteohub,2013-02-12 22:07:00,
2013-02-12 15:12:00,18.1,-5.4,29.84,North,0,5.0,11.0,34,0.00,,,0.00,meteohub,2013-02-12 22:12:00,
2013-02-12 15:17:00,18.0,-5.1,29.84,SW,225,4.0,9.0,35,0.00,,,0.00,meteohub,2013-02-12 22:17:00,
2013-02-12 15:22:00,17.6,-6.0,29.84,West,270,7.0,11.0,34,0.00,,,0.00,meteohub,2013-02-12 22:22:00,
2013-02-12 15:27:00,17.1,-5.8,29.84,NW,315,7.0,11.0,35,0.00,,,0.00,meteohub,2013-02-12 22:27:00,
2013-02-12 15:32:00,16.7,-6.2,29.84,NW,315,8.0,15.0,35,0.00,,,0.00,meteohub,2013-02-12 22:32:00,
2013-02-12 15:37:00,16.3,-6.0,29.85,NW,315,12.0,15.0,36,0.00,,,0.00,meteohub,2013-02-12 22:37:00,
2013-02-12 15:42:00,16.0,-6.3,29.85,West,270,14.0,14.0,36,0.00,,,0.00,meteohub,2013-02-12 22:42:00,
2013-02-12 15:47:00,15.4,-5.6,29.85,SW,225,4.0,14.0,38,0.00,,,0.00,meteohub,2013-02-12 22:47:00,
2013-02-12 15:52:00,15.1,-5.4,29.86,NW,315,10.0,17.0,39,0.00,,,0.00,meteohub,2013-02-12 22:52:00,
2013-02-12 15:57:00,14.7,-5.8,29.85,SW,225,9.0,17.0,39,0.00,,,0.00,meteohub,2013-02-12 22:57:00,
2013-02-12 16:02:00,14.4,-5.6,29.85,South,180,11.0,17.0,40,0.00,,,0.00,meteohub,2013-02-12 23:02:00,
2013-02-12 16:07:00,14.0,-5.8,29.86,North,0,6.0,15.0,40,0.00,,,0.00,meteohub,2013-02-12 23:07:00,
2013-02-12 16:12:00,13.8,-5.6,29.86,West,270,4.0,15.0,41,0.00,,,0.00,meteohub,2013-02-12 23:12:00,
2013-02-12 16:17:00,13.6,-5.6,29.86,WNW,293,5.0,11.0,41,0.00,,,0.00,meteohub,2013-02-12 23:17:00,
2013-02-12 16:22:00,13.1,-6.2,29.86,North,0,6.0,10.0,41,0.00,,,0.00,meteohub,2013-02-12 23:22:00,
2013-02-12 16:28:00,12.6,-6.7,29.86,NW,315,6.0,11.0,41,0.00,,,0.00,meteohub,2013-02-12 23:28:00,
2013-02-12 16:33:00,12.0,-6.7,29.85,WNW,293,4.0,11.0,42,0.00,,,0.00,meteohub,2013-02-12 23:33:00,
2013-02-12 16:38:00,11.5,-7.2,29.85,North,0,2.0,7.0,42,0.00,,,0.00,meteohub,2013-02-12 23:38:00,
2013-02-12 16:43:00,10.9,-7.2,29.86,NW,315,4.0,7.0,43,0.00,,,0.00,meteohub,2013-02-12 23:43:00,
2013-02-12 16:48:00,10.2,-9.8,29.85,West,270,3.0,7.0,39,0.00,,,0.00,meteohub,2013-02-12 23:48:00,
2013-02-12 16:53:00,9.5,-10.5,29.85,SE,135,2.0,4.0,39,0.00,,,0.00,meteohub,2013-02-12 23:53:00,
2013-02-12 16:58:00,8.8,-11.2,29.86,SE,135,1.0,4.0,39,0.00,,,0.00,meteohub,2013-02-12 23:58:00,
2013-02-12 17:03:00,8.6,-10.8,29.86,SE,135,1.0,3.0,40,0.00,,,0.00,meteohub,2013-02-13 00:03:00,
2013-02-12 17:08:00,7.9,-11.0,29.86,West,270,2.0,2.0,41,0.00,,,0.00,meteohub,2013-02-13 00:08:00,
2013-02-12 17:13:00,7.5,-11.2,29.86,SE,135,1.0,2.0,41,0.00,,,0.00,meteohub,2013-02-13 00:13:00,
2013-02-12 17:18:00,7.2,-11.2,29.86,SE,135,0.0,4.0,42,0.00,,,0.00,meteohub,2013-02-13 00:18:00,
2013-02-12 17:23:00,6.6,-11.2,29.86,NW,315,2.0,4.0,43,0.00,,,0.00,meteohub,2013-02-13 00:23:00,
2013-02-12 17:28:00,6.1,-11.6,29.86,SE,135,0.0,4.0,43,0.00,,,0.00,meteohub,2013-02-13 00:28:00,
2013-02-12 17:33:00,5.7,-11.6,29.86,SE,135,1.0,2.0,44,0.00,,,0.00,meteohub,2013-02-13 00:33:00,
2013-02-12 17:39:00,5.4,-11.7,29.86,SE,135,0.0,2.0,44,0.00,,,0.00,meteohub,2013-02-13 00:39:00,
2013-02-12 17:44:00,5.0,-12.1,29.87,SE,135,0.0,2.0,44,0.00,,,0.00,meteohub,2013-02-13 00:44:00,
2013-02-12 17:49:00,4.5,-12.3,29.86,SE,135,2.0,2.0,45,0.00,,,0.00,meteohub,2013-02-13 00:49:00,
2013-02-12 17:54:00,4.1,-12.1,29.87,SE,135,1.0,2.0,46,0.00,,,0.00,meteohub,2013-02-13 00:54:00,
2013-02-12 17:59:00,3.7,-12.5,29.87,SE,135,1.0,2.0,46,0.00,,,0.00,meteohub,2013-02-13 00:59:00,
2013-02-12 18:04:00,3.4,-12.8,29.87,SE,135,1.0,2.0,46,0.00,,,0.00,meteohub,2013-02-13 01:04:00,
2013-02-12 18:09:00,3.0,-12.3,29.86,SE,135,1.0,2.0,48,0.00,,,0.00,meteohub,2013-02-13 01:09:00,
2013-02-12 18:14:00,2.8,-12.5,29.87,SE,135,2.0,2.0,48,0.00,,,0.00,meteohub,2013-02-13 01:14:00,
2013-02-12 18:19:00,2.5,-12.8,29.87,West,270,1.0,1.0,48,0.00,,,0.00,meteohub,2013-02-13 01:19:00,
2013-02-12 18:24:00,2.3,-12.5,29.87,South,180,2.0,2.0,49,0.00,,,0.00,meteohub,2013-02-13 01:24:00,
2013-02-12 18:29:00,2.1,-12.6,29.87,SE,135,2.0,2.0,49,0.00,,,0.00,meteohub,2013-02-13 01:29:00,
2013-02-12 18:34:00,1.8,-13.0,29.87,SE,135,2.0,2.0,49,0.00,,,0.00,meteohub,2013-02-13 01:34:00,
2013-02-12 18:39:00,1.6,-13.2,29.87,South,180,2.0,2.0,49,0.00,,,0.00,meteohub,2013-02-13 01:39:00,
2013-02-12 18:44:00,1.4,-13.4,29.87,SE,135,1.0,2.0,49,0.00,,,0.00,meteohub,2013-02-13 01:44:00,
2013-02-12 18:49:00,1.2,-14.8,29.87,SE,135,2.0,2.0,46,0.00,,,0.00,meteohub,2013-02-13 01:49:00,
2013-02-12 18:55:00,1.2,-14.8,29.88,SSW,203,2.0,4.0,46,0.00,,,0.00,meteohub,2013-02-13 01:55:00,
2013-02-12 19:00:00,1.0,-14.4,29.88,SE,135,3.0,4.0,47,0.00,,,0.00,meteohub,2013-02-13 02:00:00,
2013-02-12 19:05:00,1.0,-14.4,29.88,SE,135,3.0,4.0,47,0.00,,,0.00,meteohub,2013-02-13 02:05:00,
2013-02-12 19:10:00,1.2,-13.9,29.88,East,90,2.0,3.0,48,0.00,,,0.00,meteohub,2013-02-13 02:10:00,
2013-02-12 19:15:00,1.2,-13.9,29.88,NW,315,4.0,4.0,48,0.00,,,0.00,meteohub,2013-02-13 02:15:00,
2013-02-12 19:20:00,1.4,-12.1,29.88,SE,135,1.0,3.0,52,0.00,,,0.00,meteohub,2013-02-13 02:20:00,
2013-02-12 19:25:00,1.4,-12.1,29.88,NW,315,2.0,4.0,52,0.00,,,0.00,meteohub,2013-02-13 02:25:00,
2013-02-12 19:30:00,1.4,-12.1,29.88,East,90,2.0,5.0,52,0.00,,,0.00,meteohub,2013-02-13 02:30:00,
2013-02-12 19:35:00,1.4,-12.1,29.88,North,0,2.0,5.0,52,0.00,,,0.00,meteohub,2013-02-13 02:35:00,
2013-02-12 19:40:00,1.6,-11.6,29.88,SE,135,2.0,5.0,53,0.00,,,0.00,meteohub,2013-02-13 02:40:00,
2013-02-12 19:45:00,1.6,-11.6,29.88,ESE,113,2.0,3.0,53,0.00,,,0.00,meteohub,2013-02-13 02:45:00,
2013-02-12 19:50:00,1.6,-11.6,29.88,East,90,2.0,3.0,53,0.00,,,0.00,meteohub,2013-02-13 02:50:00,
2013-02-12 19:55:00,1.6,-11.6,29.88,West,270,3.0,3.0,53,0.00,,,0.00,meteohub,2013-02-13 02:55:00,
2013-02-12 20:00:00,1.6,-11.6,29.88,SE,135,1.0,4.0,53,0.00,,,0.00,meteohub,2013-02-13 03:00:00,
2013-02-12 20:05:00,1.2,-13.5,29.88,NW,315,1.0,4.0,49,0.00,,,0.00,meteohub,2013-02-13 03:05:00,
2013-02-12 20:11:00,0.9,-13.9,29.87,SE,135,3.0,4.0,49,0.00,,,0.00,meteohub,2013-02-13 03:11:00,
2013-02-12 20:16:00,0.5,-14.1,29.87,SE,135,2.0,4.0,49,0.00,,,0.00,meteohub,2013-02-13 03:16:00,
2013-02-12 20:21:00,0.0,-15.2,29.87,West,270,2.0,3.0,48,0.00,,,0.00,meteohub,2013-02-13 03:21:00,
2013-02-12 20:26:00,-0.2,-15.2,29.87,SE,135,2.0,3.0,48,0.00,,,0.00,meteohub,2013-02-13 03:26:00,
2013-02-12 20:31:00,-0.6,-15.2,29.88,SE,135,1.0,2.0,49,0.00,,,0.00,meteohub,2013-02-13 03:31:00,
2013-02-12 20:36:00,-0.8,-15.3,29.88,SE,135,2.0,2.0,49,0.00,,,0.00,meteohub,2013-02-13 03:36:00,
2013-02-12 20:41:00,-0.9,-15.5,29.88,SE,135,2.0,2.0,49,0.00,,,0.00,meteohub,2013-02-13 03:41:00,
2013-02-12 20:46:00,-1.1,-15.7,29.88,SE,135,1.0,2.0,49,0.00,,,0.00,meteohub,2013-02-13 03:46:00,
2013-02-12 20:51:00,-1.1,-15.7,29.88,South,180,1.0,3.0,49,0.00,,,0.00,meteohub,2013-02-13 03:51:00,
2013-02-12 20:56:00,-1.1,-15.3,29.88,NW,315,2.0,3.0,50,0.00,,,0.00,meteohub,2013-02-13 03:56:00,
2013-02-12 21:01:00,-1.1,-15.3,29.88,SE,135,2.0,4.0,50,0.00,,,0.00,meteohub,2013-02-13 04:01:00,
2013-02-12 21:06:00,-1.1,-15.3,29.88,SE,135,2.0,4.0,50,0.00,,,0.00,meteohub,2013-02-13 04:06:00,
2013-02-12 21:11:00,-0.8,-14.6,29.88,SE,135,1.0,4.0,51,0.00,,,0.00,meteohub,2013-02-13 04:11:00,
2013-02-12 21:16:00,-0.9,-14.8,29.88,South,180,5.0,5.0,51,0.00,,,0.00,meteohub,2013-02-13 04:16:00,
2013-02-12 21:22:00,-0.6,-14.4,29.88,North,0,2.0,5.0,51,0.00,,,0.00,meteohub,2013-02-13 04:22:00,
2013-02-12 21:27:00,-0.2,-14.4,29.88,NW,315,3.0,8.0,50,0.00,,,0.00,meteohub,2013-02-13 04:27:00,
2013-02-12 21:32:00,0.0,-13.9,29.88,NW,315,6.0,8.0,51,0.00,,,0.00,meteohub,2013-02-13 04:32:00,
2013-02-12 21:37:00,0.0,-13.9,29.88,West,270,2.0,8.0,51,0.00,,,0.00,meteohub,2013-02-13 04:37:00,
2013-02-12 21:42:00,0.0,-13.9,29.88,South,180,2.0,8.0,51,0.00,,,0.00,meteohub,2013-02-13 04:42:00,
2013-02-12 21:47:00,0.0,-13.9,29.88,NW,315,2.0,8.0,51,0.00,,,0.00,meteohub,2013-02-13 04:47:00,
2013-02-12 21:52:00,0.0,-13.9,29.88,South,180,1.0,4.0,51,0.00,,,0.00,meteohub,2013-02-13 04:52:00,
2013-02-12 21:57:00,0.0,-13.9,29.88,West,270,1.0,4.0,51,0.00,,,0.00,meteohub,2013-02-13 04:57:00,
2013-02-12 22:00:00,0.0,-13.9,29.89,SW,225,0.0,4.0,51,0.00,,,0.00,meteohub,2013-02-13 05:00:00,
2013-02-12 22:01:00,0.0,-13.9,29.89,SW,225,0.0,4.0,51,0.00,,,0.00,meteohub,2013-02-13 05:01:00,
2013-02-12 22:02:00,0.0,-13.9,29.89,SW,225,1.0,4.0,51,0.00,,,0.00,meteohub,2013-02-13 05:02:00,
2013-02-12 22:04:00,0.0,-13.9,29.89,South,180,1.0,4.0,51,0.00,,,0.00,meteohub,2013-02-13 05:04:00,
2013-02-12 22:09:00,0.0,-13.5,29.89,South,180,0.0,4.0,52,0.00,,,0.00,meteohub,2013-02-13 05:09:00,
2013-02-12 22:14:00,0.0,-13.5,29.89,SE,135,1.0,4.0,52,0.00,,,0.00,meteohub,2013-02-13 05:14:00,
2013-02-12 22:19:00,-0.2,-14.1,29.89,SE,135,2.0,4.0,51,0.00,,,0.00,meteohub,2013-02-13 05:19:00,
2013-02-12 22:24:00,-0.6,-14.1,29.89,SE,135,0.0,4.0,52,0.00,,,0.00,meteohub,2013-02-13 05:24:00,
2013-02-12 22:29:00,-0.8,-14.1,29.89,SE,135,0.0,3.0,52,0.00,,,0.00,meteohub,2013-02-13 05:29:00,
2013-02-12 22:34:00,-0.9,-14.3,29.89,SE,135,0.0,2.0,52,0.00,,,0.00,meteohub,2013-02-13 05:34:00,
2013-02-12 22:39:00,-0.9,-14.3,29.89,SE,135,2.0,2.0,52,0.00,,,0.00,meteohub,2013-02-13 05:39:00,
2013-02-12 22:44:00,-0.9,-14.3,29.89,West,270,2.0,2.0,52,0.00,,,0.00,meteohub,2013-02-13 05:44:00,
2013-02-12 22:49:00,-0.9,-14.3,29.89,SE,135,1.0,2.0,52,0.00,,,0.00,meteohub,2013-02-13 05:49:00,
2013-02-12 22:54:00,-0.9,-14.3,29.89,SE,135,0.0,2.0,52,0.00,,,0.00,meteohub,2013-02-13 05:54:00,
2013-02-12 22:59:00,-0.9,-14.3,29.89,SE,135,2.0,2.0,52,0.00,,,0.00,meteohub,2013-02-13 05:59:00,
2013-02-12 23:05:00,-0.9,-14.3,29.89,SE,135,2.0,3.0,52,0.00,,,0.00,meteohub,2013-02-13 06:05:00,
2013-02-12 23:10:00,-0.8,-13.7,29.89,SE,135,2.0,3.0,53,0.00,,,0.00,meteohub,2013-02-13 06:10:00,
2013-02-12 23:15:00,-0.8,-13.7,29.90,SE,135,0.0,3.0,53,0.00,,,0.00,meteohub,2013-02-13 06:15:00,
2013-02-12 23:20:00,-0.9,-13.9,29.90,West,270,2.0,2.0,53,0.00,,,0.00,meteohub,2013-02-13 06:20:00,
2013-02-12 23:25:00,-0.8,-13.7,29.89,SW,225,2.0,2.0,53,0.00,,,0.00,meteohub,2013-02-13 06:25:00,
2013-02-12 23:30:00,-0.8,-13.7,29.89,South,180,1.0,2.0,53,0.00,,,0.00,meteohub,2013-02-13 06:30:00,
2013-02-12 23:35:00,-0.8,-13.7,29.90,West,270,4.0,4.0,53,0.00,,,0.00,meteohub,2013-02-13 06:35:00,
2013-02-12 23:40:00,-0.8,-13.7,29.90,SSE,158,3.0,4.0,53,0.00,,,0.00,meteohub,2013-02-13 06:40:00,
2013-02-12 23:45:00,-0.6,-13.5,29.90,NW,315,0.0,4.0,53,0.00,,,0.00,meteohub,2013-02-13 06:45:00,
2013-02-12 23:50:00,-0.4,-13.4,29.90,West,270,1.0,4.0,53,0.00,,,0.00,meteohub,2013-02-13 06:50:00,
2013-02-12 23:55:00,-0.2,-13.4,29.90,South,180,2.0,3.0,53,0.00,,,0.00,meteohub,2013-02-13 06:55:00,